Regional Weather Roundup
Issued by NWS

Home | Current Version | Previous Version | Graphics & Text | Print | Product List | Glossary On
Versions: 1 2 3 4 5 6 7 8 9 10 11 12 13 14 15 16 17 18 19 20 21 22 23 24 25 26 27 28 29 30 31 32 33 34 35 36 37 38 39 40 41 42 43 44 45 46 47 48 49 50
000
ASUS43 KFSD 221510
RWRSD

WEATHER ROUNDUP FOR SOUTH DAKOTA
NATIONAL WEATHER SERVICE SIOUX FALLS SD
1000 AM CDT SAT APR 22 2017

NOTE: "FAIR" INDICATES FEW OR NO CLOUDS BELOW 12,000 FEET WITH NO
SIGNIFICANT WEATHER AND/OR OBSTRUCTIONS TO VISIBILITY.


SDZ001>005-009-010-012>017-221600-
NORTHWEST AND NORTH CENTRAL SOUTH DAKOTA

CITY           SKY/WX    TMP DP  RH WIND       PRES   REMARKS
BUFFALO          N/A     52  43  71 W10       30.16F
FAITH            N/A     50  40  68 S14       30.23F
MOBRIDGE       SUNNY     51  40  65 S5        30.23F
$$

SDZ012>016-024>037-041>051-057-063-072>074-221600-
SOUTHWEST AND SOUTH CENTRAL SOUTH DAKOTA

CITY           SKY/WX    TMP DP  RH WIND       PRES   REMARKS
RAPID CTY ARPT SUNNY     49  37  63 CALM      30.26S
PIERRE         SUNNY     49  39  68 W3        30.27F
CUSTER         SUNNY     43  34  70 W7        30.26S
ELLSWORTH AFB  SUNNY     51  40  65 N6        30.25S
PHILIP         SUNNY     52  39  61 S8        30.27F
PINE RIDGE     SUNNY     49  39  68 SW9       30.28F
SPEARFISH      FAIR      50  37  62 W6        30.26S
WINNER         FAIR      53  40  61 CALM      30.30S
$$

SDZ004>011-016>023-039-040-221600-
NORTHEAST SOUTH DAKOTA

CITY           SKY/WX    TMP DP  RH WIND       PRES   REMARKS
ABERDEEN       SUNNY     55  38  52 SW10      30.26F
WATERTOWN      SUNNY     54  42  64 SW6       30.26F
BROOKINGS      SUNNY     54  42  64 CALM      30.29F
SISSETON         N/A     60  41  49 W12       30.23F
$$

SDZ017-020-022-023-036>040-048>070-221600-
SOUTHEAST SOUTH DAKOTA

CITY           SKY/WX    TMP DP  RH WIND       PRES   REMARKS
SIOUX FALLS    MOSUNNY   56  44  64 CALM      30.29S
HURON          SUNNY     55  38  52 S3        30.28F
CHAMBERLAIN    SUNNY     53  43  70 CALM      30.29F
MITCHELL       SUNNY     54  42  64 NW5       30.30S
YANKTON        SUNNY     55  39  54 NW5       30.29R
$$

ABBREVIATIONS USED IN REMARKS
   TC - TEMPERATURE IN CELSIUS
  WCI - WIND CHILL INDEX
   HX - HEAT INDEX
  VSB - VISIBILITY





USA.gov is the U.S. government's official web portal to all federal, state and local government web resources and services.